Time,TemperatureF,DewpointF,PressureIn,WindDirection,WindDirectionDegrees,WindSpeedMPH,WindSpeedGustMPH,Humidity,HourlyPrecipIn,Conditions,Clouds,dailyrainin,SoftwareType,DateUTC
2013-01-07 00:03:00,25.0,22.0,-100.00,North,-999,-999.0,-999.0,90,-99.99,,,-99.99,,2013-01-07 05:03:00,
2013-01-07 00:12:00,25.0,22.0,-100.00,North,-999,-999.0,-999.0,90,-99.99,,,-99.99,,2013-01-07 05:12:00,
2013-01-07 00:22:00,24.0,22.0,-100.00,North,-999,-999.0,-999.0,90,-99.99,,,-99.99,,2013-01-07 05:22:00,
2013-01-07 00:33:00,23.0,21.0,-100.00,North,-999,-999.0,-999.0,91,-99.99,,,-99.99,,2013-01-07 05:33:00,
2013-01-07 00:42:00,23.0,21.0,-100.00,North,-999,-999.0,-999.0,91,-99.99,,,-99.99,,2013-01-07 05:42:00,
2013-01-07 00:53:00,25.0,23.0,-100.00,North,-999,-999.0,-999.0,92,-99.99,,,-99.99,,2013-01-07 05:53:00,
2013-01-07 01:02:00,26.0,24.0,-100.00,North,-999,-999.0,-999.0,92,-99.99,,,-99.99,,2013-01-07 06:02:00,
2013-01-07 01:12:00,26.0,24.0,-100.00,North,-999,-999.0,-999.0,92,-99.99,,,-99.99,,2013-01-07 06:12:00,
2013-01-07 01:22:00,27.0,25.0,-100.00,North,-999,-999.0,-999.0,91,-99.99,,,-99.99,,2013-01-07 06:22:00,
2013-01-07 01:32:00,27.0,24.0,-100.00,North,-999,-999.0,-999.0,90,-99.99,,,-99.99,,2013-01-07 06:32:00,
2013-01-07 01:42:00,27.0,24.0,-100.00,North,-999,-999.0,-999.0,90,-99.99,,,-99.99,,2013-01-07 06:42:00,
2013-01-07 01:52:00,26.0,23.0,-100.00,North,-999,-999.0,-999.0,89,-99.99,,,-99.99,,2013-01-07 06:52:00,
2013-01-07 02:02:00,25.0,22.0,-100.00,North,-999,-999.0,-999.0,89,-99.99,,,-99.99,,2013-01-07 07:02:00,
2013-01-07 02:12:00,25.0,22.0,-100.00,North,-999,-999.0,-999.0,89,-99.99,,,-99.99,,2013-01-07 07:12:00,
2013-01-07 02:22:00,26.0,23.0,-100.00,North,-999,-999.0,-999.0,90,-99.99,,,-99.99,,2013-01-07 07:22:00,
2013-01-07 02:33:00,25.0,22.0,-100.00,North,-999,-999.0,-999.0,90,-99.99,,,-99.99,,2013-01-07 07:33:00,
2013-01-07 02:42:00,25.0,22.0,-100.00,North,-999,-999.0,-999.0,90,-99.99,,,-99.99,,2013-01-07 07:42:00,
2013-01-07 02:53:00,25.0,22.0,-100.00,North,-999,-999.0,-999.0,90,-99.99,,,-99.99,,2013-01-07 07:53:00,
2013-01-07 03:03:00,27.0,24.0,-100.00,North,-999,-999.0,-999.0,90,-99.99,,,-99.99,,2013-01-07 08:03:00,
2013-01-07 03:12:00,27.0,24.0,-100.00,North,-999,-999.0,-999.0,90,-99.99,,,-99.99,,2013-01-07 08:12:00,
2013-01-07 03:22:00,28.0,25.0,-100.00,North,-999,-999.0,-999.0,90,-99.99,,,-99.99,,2013-01-07 08:22:00,
2013-01-07 03:33:00,28.0,25.0,-100.00,North,-999,-999.0,-999.0,89,-99.99,,,-99.99,,2013-01-07 08:33:00,
2013-01-07 03:42:00,28.0,25.0,-100.00,North,-999,-999.0,-999.0,89,-99.99,,,-99.99,,2013-01-07 08:42:00,
2013-01-07 03:53:00,27.0,24.0,-100.00,North,-999,-999.0,-999.0,88,-99.99,,,-99.99,,2013-01-07 08:53:00,
2013-01-07 04:02:00,27.0,24.0,-100.00,North,-999,-999.0,-999.0,89,-99.99,,,-99.99,,2013-01-07 09:02:00,
2013-01-07 04:12:00,27.0,24.0,-100.00,North,-999,-999.0,-999.0,89,-99.99,,,-99.99,,2013-01-07 09:12:00,
2013-01-07 04:23:00,27.0,24.0,-100.00,North,-999,-999.0,-999.0,89,-99.99,,,-99.99,,2013-01-07 09:23:00,
2013-01-07 04:32:00,27.0,24.0,-100.00,North,-999,-999.0,-999.0,89,-99.99,,,-99.99,,2013-01-07 09:32:00,
2013-01-07 04:42:00,27.0,24.0,-100.00,North,-999,-999.0,-999.0,89,-99.99,,,-99.99,,2013-01-07 09:42:00,
2013-01-07 04:53:00,25.0,22.0,-100.00,North,-999,-999.0,-999.0,89,-99.99,,,-99.99,,2013-01-07 09:53:00,
2013-01-07 05:02:00,25.0,22.0,-100.00,North,-999,-999.0,-999.0,89,-99.99,,,-99.99,,2013-01-07 10:02:00,
2013-01-07 05:12:00,25.0,22.0,-100.00,North,-999,-999.0,-999.0,89,-99.99,,,-99.99,,2013-01-07 10:12:00,
2013-01-07 05:22:00,25.0,22.0,-100.00,North,-999,-999.0,-999.0,90,-99.99,,,-99.99,,2013-01-07 10:22:00,
2013-01-07 05:32:00,25.0,22.0,-100.00,North,-999,-999.0,-999.0,90,-99.99,,,-99.99,,2013-01-07 10:32:00,
2013-01-07 05:42:00,25.0,22.0,-100.00,North,-999,-999.0,-999.0,90,-99.99,,,-99.99,,2013-01-07 10:42:00,
2013-01-07 05:52:00,24.0,22.0,-100.00,North,-999,-999.0,-999.0,90,-99.99,,,-99.99,,2013-01-07 10:52:00,
2013-01-07 06:02:00,25.0,23.0,-100.00,North,-999,-999.0,-999.0,91,-99.99,,,-99.99,,2013-01-07 11:02:00,
2013-01-07 06:12:00,25.0,23.0,-100.00,North,-999,-999.0,-999.0,91,-99.99,,,-99.99,,2013-01-07 11:12:00,
2013-01-07 06:23:00,24.0,22.0,-100.00,North,-999,-999.0,-999.0,91,-99.99,,,-99.99,,2013-01-07 11:23:00,
2013-01-07 06:33:00,24.0,22.0,-100.00,North,-999,-999.0,-999.0,91,-99.99,,,-99.99,,2013-01-07 11:33:00,
2013-01-07 06:43:00,24.0,22.0,-100.00,North,-999,-999.0,-999.0,91,-99.99,,,-99.99,,2013-01-07 11:43:00,
2013-01-07 06:53:00,23.0,21.0,-100.00,North,-999,-999.0,-999.0,91,-99.99,,,-99.99,,2013-01-07 11:53:00,
2013-01-07 07:03:00,23.0,21.0,-100.00,North,-999,-999.0,-999.0,91,-99.99,,,-99.99,,2013-01-07 12:03:00,
2013-01-07 07:12:00,23.0,21.0,-100.00,North,-999,-999.0,-999.0,91,-99.99,,,-99.99,,2013-01-07 12:12:00,
2013-01-07 07:23:00,24.0,22.0,-100.00,North,-999,-999.0,-999.0,92,-99.99,,,-99.99,,2013-01-07 12:23:00,
2013-01-07 07:33:00,24.0,22.0,-100.00,North,-999,-999.0,-999.0,93,-99.99,,,-99.99,,2013-01-07 12:33:00,
2013-01-07 07:43:00,24.0,22.0,-100.00,North,-999,-999.0,-999.0,93,-99.99,,,-99.99,,2013-01-07 12:43:00,
2013-01-07 07:53:00,24.0,22.0,-100.00,North,-999,-999.0,-999.0,93,-99.99,,,-99.99,,2013-01-07 12:53:00,
2013-01-07 08:03:00,24.0,22.0,-100.00,North,-999,-999.0,-999.0,93,-99.99,,,-99.99,,2013-01-07 13:03:00,
2013-01-07 08:12:00,24.0,22.0,-100.00,North,-999,-999.0,-999.0,93,-99.99,,,-99.99,,2013-01-07 13:12:00,
2013-01-07 08:23:00,26.0,24.0,-100.00,North,-999,-999.0,-999.0,93,-99.99,,,-99.99,,2013-01-07 13:23:00,
2013-01-07 08:33:00,26.0,24.0,-100.00,North,-999,-999.0,-999.0,92,-99.99,,,-99.99,,2013-01-07 13:33:00,
2013-01-07 08:43:00,26.0,24.0,-100.00,North,-999,-999.0,-999.0,92,-99.99,,,-99.99,,2013-01-07 13:43:00,
2013-01-07 08:53:00,29.0,26.0,-100.00,North,-999,-999.0,-999.0,90,-99.99,,,-99.99,,2013-01-07 13:53:00,
2013-01-07 09:03:00,32.0,29.0,-100.00,North,-999,-999.0,-999.0,89,-99.99,,,-99.99,,2013-01-07 14:03:00,
2013-01-07 09:13:00,32.0,29.0,-100.00,North,-999,-999.0,-999.0,89,-99.99,,,-99.99,,2013-01-07 14:13:00,
2013-01-07 09:23:00,35.0,31.0,-100.00,North,-999,-999.0,-999.0,86,-99.99,,,-99.99,,2013-01-07 14:23:00,
2013-01-07 09:33:00,37.0,32.0,-100.00,North,-999,-999.0,-999.0,83,-99.99,,,-99.99,,2013-01-07 14:33:00,
2013-01-07 09:43:00,37.0,32.0,-100.00,North,-999,-999.0,-999.0,83,-99.99,,,-99.99,,2013-01-07 14:43:00,
2013-01-07 09:53:00,36.0,30.0,-100.00,North,-999,-999.0,-999.0,80,-99.99,,,-99.99,,2013-01-07 14:53:00,
2013-01-07 10:03:00,34.0,28.0,-100.00,North,-999,-999.0,-999.0,79,-99.99,,,-99.99,,2013-01-07 15:03:00,
2013-01-07 10:12:00,34.0,28.0,-100.00,North,-999,-999.0,-999.0,79,-99.99,,,-99.99,,2013-01-07 15:12:00,
2013-01-07 10:23:00,36.0,29.0,-100.00,North,-999,-999.0,-999.0,75,-99.99,,,-99.99,,2013-01-07 15:23:00,
2013-01-07 10:33:00,35.0,28.0,-100.00,North,-999,-999.0,-999.0,74,-99.99,,,-99.99,,2013-01-07 15:33:00,
2013-01-07 10:43:00,35.0,28.0,-100.00,North,-999,-999.0,-999.0,74,-99.99,,,-99.99,,2013-01-07 15:43:00,
2013-01-07 10:53:00,39.0,30.0,-100.00,North,-999,-999.0,-999.0,71,-99.99,,,-99.99,,2013-01-07 15:53:00,
2013-01-07 11:03:00,39.0,29.0,-100.00,North,-999,-999.0,-999.0,68,-99.99,,,-99.99,,2013-01-07 16:03:00,
2013-01-07 11:12:00,39.0,29.0,-100.00,North,-999,-999.0,-999.0,68,-99.99,,,-99.99,,2013-01-07 16:12:00,
2013-01-07 11:23:00,39.0,28.0,-100.00,North,-999,-999.0,-999.0,65,-99.99,,,-99.99,,2013-01-07 16:23:00,
2013-01-07 11:33:00,40.0,28.0,-100.00,North,-999,-999.0,-999.0,63,-99.99,,,-99.99,,2013-01-07 16:33:00,
2013-01-07 11:43:00,40.0,28.0,-100.00,North,-999,-999.0,-999.0,63,-99.99,,,-99.99,,2013-01-07 16:43:00,
2013-01-07 11:53:00,39.0,27.0,-100.00,North,-999,-999.0,-999.0,62,-99.99,,,-99.99,,2013-01-07 16:53:00,
2013-01-07 12:03:00,39.0,27.0,-100.00,North,-999,-999.0,-999.0,62,-99.99,,,-99.99,,2013-01-07 17:03:00,
2013-01-07 12:12:00,39.0,27.0,-100.00,North,-999,-999.0,-999.0,62,-99.99,,,-99.99,,2013-01-07 17:12:00,
2013-01-07 12:23:00,38.0,25.0,-100.00,North,-999,-999.0,-999.0,59,-99.99,,,-99.99,,2013-01-07 17:23:00,
2013-01-07 12:33:00,39.0,25.0,-100.00,North,-999,-999.0,-999.0,57,-99.99,,,-99.99,,2013-01-07 17:33:00,
2013-01-07 12:42:00,39.0,25.0,-100.00,North,-999,-999.0,-999.0,57,-99.99,,,-99.99,,2013-01-07 17:42:00,
2013-01-07 12:53:00,40.0,26.0,-100.00,North,-999,-999.0,-999.0,56,-99.99,,,-99.99,,2013-01-07 17:53:00,
2013-01-07 13:03:00,39.0,25.0,-100.00,North,-999,-999.0,-999.0,57,-99.99,,,-99.99,,2013-01-07 18:03:00,
2013-01-07 13:13:00,39.0,25.0,-100.00,North,-999,-999.0,-999.0,57,-99.99,,,-99.99,,2013-01-07 18:13:00,
2013-01-07 13:23:00,40.0,25.0,-100.00,North,-999,-999.0,-999.0,55,-99.99,,,-99.99,,2013-01-07 18:23:00,
2013-01-07 13:33:00,41.0,26.0,-100.00,North,-999,-999.0,-999.0,55,-99.99,,,-99.99,,2013-01-07 18:33:00,
2013-01-07 13:43:00,41.0,26.0,-100.00,North,-999,-999.0,-999.0,55,-99.99,,,-99.99,,2013-01-07 18:43:00,
2013-01-07 13:53:00,40.0,25.0,-100.00,North,-999,-999.0,-999.0,54,-99.99,,,-99.99,,2013-01-07 18:53:00,
2013-01-07 14:03:00,41.0,25.0,-100.00,North,-999,-999.0,-999.0,53,-99.99,,,-99.99,,2013-01-07 19:03:00,
2013-01-07 14:12:00,41.0,25.0,-100.00,North,-999,-999.0,-999.0,53,-99.99,,,-99.99,,2013-01-07 19:12:00,
2013-01-07 14:23:00,40.0,24.0,-100.00,North,-999,-999.0,-999.0,52,-99.99,,,-99.99,,2013-01-07 19:23:00,
2013-01-07 14:33:00,39.0,23.0,-100.00,North,-999,-999.0,-999.0,53,-99.99,,,-99.99,,2013-01-07 19:33:00,
2013-01-07 14:43:00,39.0,23.0,-100.00,North,-999,-999.0,-999.0,53,-99.99,,,-99.99,,2013-01-07 19:43:00,
2013-01-07 14:53:00,39.0,23.0,-100.00,North,-999,-999.0,-999.0,52,-99.99,,,-99.99,,2013-01-07 19:53:00,
2013-01-07 15:03:00,38.0,22.0,-100.00,North,-999,-999.0,-999.0,52,-99.99,,,-99.99,,2013-01-07 20:03:00,
2013-01-07 15:12:00,38.0,22.0,-100.00,North,-999,-999.0,-999.0,52,-99.99,,,-99.99,,2013-01-07 20:12:00,
2013-01-07 15:23:00,37.0,22.0,-100.00,North,-999,-999.0,-999.0,55,-99.99,,,-99.99,,2013-01-07 20:23:00,
2013-01-07 15:33:00,36.0,21.0,-100.00,North,-999,-999.0,-999.0,54,-99.99,,,-99.99,,2013-01-07 20:33:00,
2013-01-07 15:42:00,36.0,21.0,-100.00,North,-999,-999.0,-999.0,54,-99.99,,,-99.99,,2013-01-07 20:42:00,
2013-01-07 15:53:00,34.0,21.0,-100.00,North,-999,-999.0,-999.0,59,-99.99,,,-99.99,,2013-01-07 20:53:00,
2013-01-07 16:03:00,33.0,21.0,-100.00,North,-999,-999.0,-999.0,60,-99.99,,,-99.99,,2013-01-07 21:03:00,
2013-01-07 16:12:00,33.0,21.0,-100.00,North,-999,-999.0,-999.0,60,-99.99,,,-99.99,,2013-01-07 21:12:00,
2013-01-07 16:23:00,32.0,20.0,-100.00,North,-999,-999.0,-999.0,60,-99.99,,,-99.99,,2013-01-07 21:23:00,
2013-01-07 16:33:00,31.0,19.0,-100.00,North,-999,-999.0,-999.0,61,-99.99,,,-99.99,,2013-01-07 21:33:00,
2013-01-07 16:43:00,31.0,19.0,-100.00,North,-999,-999.0,-999.0,61,-99.99,,,-99.99,,2013-01-07 21:43:00,
2013-01-07 16:53:00,30.0,19.0,-100.00,North,-999,-999.0,-999.0,62,-99.99,,,-99.99,,2013-01-07 21:53:00,
2013-01-07 17:03:00,27.0,18.0,-100.00,North,-999,-999.0,-999.0,67,-99.99,,,-99.99,,2013-01-07 22:03:00,
2013-01-07 17:12:00,27.0,18.0,-100.00,North,-999,-999.0,-999.0,67,-99.99,,,-99.99,,2013-01-07 22:12:00,
2013-01-07 17:23:00,25.0,16.0,-100.00,North,-999,-999.0,-999.0,69,-99.99,,,-99.99,,2013-01-07 22:23:00,
2013-01-07 17:33:00,25.0,17.0,-100.00,North,-999,-999.0,-999.0,71,-99.99,,,-99.99,,2013-01-07 22:33:00,
2013-01-07 17:43:00,25.0,17.0,-100.00,North,-999,-999.0,-999.0,71,-99.99,,,-99.99,,2013-01-07 22:43:00,
2013-01-07 17:53:00,24.0,17.0,-100.00,North,-999,-999.0,-999.0,73,-99.99,,,-99.99,,2013-01-07 22:53:00,
2013-01-07 18:02:00,24.0,17.0,-100.00,North,-999,-999.0,-999.0,74,-99.99,,,-99.99,,2013-01-07 23:02:00,
2013-01-07 18:12:00,24.0,17.0,-100.00,North,-999,-999.0,-999.0,74,-99.99,,,-99.99,,2013-01-07 23:12:00,
2013-01-07 18:23:00,23.0,16.0,-100.00,North,-999,-999.0,-999.0,74,-99.99,,,-99.99,,2013-01-07 23:23:00,
2013-01-07 18:33:00,22.0,15.0,-100.00,North,-999,-999.0,-999.0,74,-99.99,,,-99.99,,2013-01-07 23:33:00,
2013-01-07 18:43:00,22.0,15.0,-100.00,North,-999,-999.0,-999.0,74,-99.99,,,-99.99,,2013-01-07 23:43:00,
2013-01-07 18:53:00,22.0,15.0,-100.00,North,-999,-999.0,-999.0,75,-99.99,,,-99.99,,2013-01-07 23:53:00,
2013-01-07 19:03:00,22.0,15.0,-100.00,North,-999,-999.0,-999.0,75,-99.99,,,-99.99,,2013-01-08 00:03:00,
2013-01-07 19:12:00,22.0,15.0,-100.00,North,-999,-999.0,-999.0,75,-99.99,,,-99.99,,2013-01-08 00:12:00,
2013-01-07 19:22:00,20.0,13.0,-100.00,North,-999,-999.0,-999.0,75,-99.99,,,-99.99,,2013-01-08 00:22:00,
2013-01-07 19:33:00,21.0,15.0,-100.00,North,-999,-999.0,-999.0,77,-99.99,,,-99.99,,2013-01-08 00:33:00,
2013-01-07 19:43:00,21.0,15.0,-100.00,North,-999,-999.0,-999.0,77,-99.99,,,-99.99,,2013-01-08 00:43:00,
2013-01-07 19:53:00,19.0,14.0,-100.00,North,-999,-999.0,-999.0,79,-99.99,,,-99.99,,2013-01-08 00:53:00,
2013-01-07 20:03:00,19.0,13.0,-100.00,North,-999,-999.0,-999.0,78,-99.99,,,-99.99,,2013-01-08 01:03:00,
2013-01-07 20:12:00,19.0,13.0,-100.00,North,-999,-999.0,-999.0,78,-99.99,,,-99.99,,2013-01-08 01:12:00,
2013-01-07 20:22:00,19.0,14.0,-100.00,North,-999,-999.0,-999.0,79,-99.99,,,-99.99,,2013-01-08 01:22:00,
2013-01-07 20:33:00,19.0,14.0,-100.00,North,-999,-999.0,-999.0,79,-99.99,,,-99.99,,2013-01-08 01:33:00,
2013-01-07 20:42:00,19.0,14.0,-100.00,North,-999,-999.0,-999.0,79,-99.99,,,-99.99,,2013-01-08 01:42:00,
2013-01-07 20:53:00,18.0,13.0,-100.00,North,-999,-999.0,-999.0,80,-99.99,,,-99.99,,2013-01-08 01:53:00,
2013-01-07 21:02:00,18.0,13.0,-100.00,North,-999,-999.0,-999.0,81,-99.99,,,-99.99,,2013-01-08 02:02:00,
2013-01-07 21:12:00,18.0,13.0,-100.00,North,-999,-999.0,-999.0,81,-99.99,,,-99.99,,2013-01-08 02:12:00,
2013-01-07 21:22:00,18.0,13.0,-100.00,North,-999,-999.0,-999.0,81,-99.99,,,-99.99,,2013-01-08 02:22:00,
2013-01-07 21:33:00,17.0,12.0,-100.00,North,-999,-999.0,-999.0,80,-99.99,,,-99.99,,2013-01-08 02:33:00,
2013-01-07 21:42:00,17.0,12.0,-100.00,North,-999,-999.0,-999.0,80,-99.99,,,-99.99,,2013-01-08 02:42:00,
2013-01-07 21:53:00,18.0,13.0,-100.00,North,-999,-999.0,-999.0,81,-99.99,,,-99.99,,2013-01-08 02:53:00,
2013-01-07 22:03:00,17.0,12.0,-100.00,North,-999,-999.0,-999.0,81,-99.99,,,-99.99,,2013-01-08 03:03:00,
2013-01-07 22:12:00,17.0,12.0,-100.00,North,-999,-999.0,-999.0,81,-99.99,,,-99.99,,2013-01-08 03:12:00,
2013-01-07 22:22:00,18.0,13.0,-100.00,North,-999,-999.0,-999.0,82,-99.99,,,-99.99,,2013-01-08 03:22:00,
2013-01-07 22:32:00,17.0,12.0,-100.00,North,-999,-999.0,-999.0,82,-99.99,,,-99.99,,2013-01-08 03:32:00,
2013-01-07 22:43:00,17.0,12.0,-100.00,North,-999,-999.0,-999.0,82,-99.99,,,-99.99,,2013-01-08 03:43:00,
2013-01-07 22:53:00,19.0,14.0,-100.00,North,-999,-999.0,-999.0,81,-99.99,,,-99.99,,2013-01-08 03:53:00,
2013-01-07 23:02:00,19.0,14.0,-100.00,North,-999,-999.0,-999.0,80,-99.99,,,-99.99,,2013-01-08 04:02:00,
2013-01-07 23:12:00,19.0,14.0,-100.00,North,-999,-999.0,-999.0,80,-99.99,,,-99.99,,2013-01-08 04:12:00,
2013-01-07 23:22:00,18.0,13.0,-100.00,North,-999,-999.0,-999.0,80,-99.99,,,-99.99,,2013-01-08 04:22:00,
2013-01-07 23:32:00,18.0,13.0,-100.00,North,-999,-999.0,-999.0,80,-99.99,,,-99.99,,2013-01-08 04:32:00,
2013-01-07 23:42:00,18.0,13.0,-100.00,North,-999,-999.0,-999.0,80,-99.99,,,-99.99,,2013-01-08 04:42:00,
2013-01-07 23:52:00,18.0,13.0,-100.00,North,-999,-999.0,-999.0,80,-99.99,,,-99.99,,2013-01-08 04:52:00,